Regional Weather Roundup
Issued by NWS

Home | Current Version | Previous Version | Graphics & Text | Print | Product List | Glossary On
Versions: 1 2 3 4 5 6 7 8 9 10 11 12 13 14 15 16 17 18 19 20 21 22 23 24 25 26 27 28 29 30 31 32 33 34 35 36 37 38 39 40 41 42 43 44 45 46 47 48 49 50
000
ASUS45 KTFX 251010
RWRMT
MONTANA REGIONAL WEATHER ROUNDUP
NATIONAL WEATHER SERVICE GREAT FALLS MT
300 AM MST SAT FEB 25 2017

NOTE: "FAIR" INDICATES FEW OR NO CLOUDS BELOW 12000 FEET WITH NO
SIGNIFICANT WEATHER AND/OR OBSTRUCTIONS TO VISIBILITY.

MTZ001>007-043-251100-
WEST OF THE DIVIDE

CITY           SKY/WX    TMP DP  RH WIND       PRES   REMARKS
KALISPELL      CLEAR     10   7  87 CALM      30.05S
MISSOULA       CLOUDY    23  16  74 CALM      30.08F
BUTTE          LGT SNOW  15  11  83 CALM      29.95F FOG
MULLAN PASS    FLURRIES  12   9  87 W5        29.92S
ANACONDA         N/A     18   9  68 W7        29.98S WCI   8
DEER LODGE       N/A     18  10  73 CALM      30.01F
EUREKA           N/A     19  12  73 SE6       30.04F WCI  11
HAMILTON         N/A     23  12  63 SE5       30.06F
LIBBY            N/A     10   9  92 CALM      30.08S
PLAINS           N/A     13   4  67 SW2       30.10F
RONAN            N/A     22  16  78 CALM      30.08F
$$

MTZ008-052>055-251100-
SOUTHWEST MONTANA

CITY           SKY/WX    TMP DP  RH WIND       PRES   REMARKS
BOZEMAN        LGT SNOW  22  19  89 W12       29.98F FOG     WCI  10
DILLON         CLOUDY    19  12  74 SW13      29.95  WCI   6
W YELLOWSTONE  LGT SNOW  10   7  85 S5        29.94F
ENNIS          CLOUDY    19  12  73 S10       30.00F HAZE    WCI   8
THREE FORKS      N/A     23   2  40 CALM      29.99S
TWIN BRIDGES     N/A     21  14  74 SE3       29.97S
$$

MTZ009-010-012-014-046-048-049-054-251100-
EAST SLOPES AND CENTRAL MONTANA

CITY           SKY/WX    TMP DP  RH WIND       PRES   REMARKS
CUT BANK       PTCLDY    12   7  80 W7        29.90F WCI   1
GREAT FALLS    MOCLDY    19  15  84 SW12      29.95F WCI   7
MALMSTROM AFB  CLEAR     17  16  94 SW8       29.97F WCI   7
HELENA         CLOUDY    22  13  68 NW3       29.99F
AUGUSTA          N/A     16   9  73 W9        29.92F WCI   5
BOWMANS CRNR     N/A     16   9  76 S9        29.92F WCI   4
CHOTEAU          N/A     18  10  73 S6        29.95F WCI   9
CONRAD           N/A     12   7  81 W7        29.95F WCI   1
POWER            N/A     14  11  90 SW7       29.94F WCI   4
RAYNESFORD       N/A     19  12  74 SW14      29.94F WCI   6
ULM            MOCLDY    18  15  88 MISG      29.97F
$$

MTZ011-013-016-021-045-047-050-051-251100-
NORTH CENTRAL MONTANA

CITY           SKY/WX    TMP DP  RH WIND       PRES   REMARKS
HAVRE          CLOUDY    23  20  88 SW13      29.97F WCI  11
LEWISTOWN      CLOUDY    15  11  83 SW10      29.93F WCI   2
N BAR RANCH    MOCLDY    14   7  73 W8        29.95F WCI   3
CHINOOK          N/A     18  16  93 CALM      29.99F
DENTON           N/A     19  15  84 S14G20    29.92F WCI   6
GEYSER         MOCLDY    18  14  84 SW6       29.94F WCI   9
GRASS RANGE    MOCLDY    18  14  86 W6        29.92F WCI  10
JUDITH GAP     MOCLDY    17  12  82 CALM      29.92F
ROY              N/A     16  13  91 MISG      29.93F
STANFORD       MOCLDY    17  12  81 W10       29.92F WCI   5
WINIFRED         N/A     17  13  85 SW6       29.94F WCI   9
$$

MTZ017>020-022>027-061-062-251100-
NORTHEAST MONTANA

CITY           SKY/WX    TMP DP  RH WIND       PRES   REMARKS
GLASGOW        CLOUDY    19  17  92 CALM      29.97F
JORDAN           N/A     22  19  89 CALM      29.97F
SIDNEY         FLURRIES  22  20  92 W7        29.96F WCI  13
WOLF POINT     PTCLDY    12   9  87 NW5       29.99F
PLENTYWOOD       N/A     14  12  92 W7        29.96S WCI   4
POPLAR           N/A     14  10  85 CALM      29.98F VSB 1/2
SCOBEY           N/A      6  -3  66 CALM      29.94F
$$

MTZ028>42-056>058-251100-
SOUTHCENTRAL AND SOUTHEAST MONTANA

CITY           SKY/WX    TMP DP  RH WIND       PRES   REMARKS
BAKER          CLOUDY    24  17  74 W10       29.93F WCI  14
BILLINGS       CLOUDY    23  20  88 SW10      29.98F WCI  12
LIVINGSTON     CLOUDY    23  13  65 W14       29.94F WCI  11
MILES CITY     MOCLDY    27  23  85 W12       29.97F WCI  17
BIG TIMBER     MOCLDY    21  18  86 W16       29.97F FOG     WCI   7
EKALAKA          N/A     23  18  81 W8        29.90F WCI  14
FORSYTH          N/A     25  25 100 W7        29.99F WCI  17
HARLOWTON      MOCLDY    15  12  90 NW6       29.94F WCI   6
LAUREL           N/A     22  16  78 CALM      29.96F
ROUNDUP          N/A     24  18  78 SW6       29.89F WCI  17
$$

REGIONAL REPORTS...DAKOTAS

CITY           SKY/WX    TMP DP  RH WIND       PRES   REMARKS
WILLISTON      CLOUDY    22  19  89 CALM      29.95F
MINOT          PTCLDY    23  18  81 W9        29.92F WCI  13
DICKINSON      CLOUDY    20  14  77 W5        29.90F
BEACH            N/A    N/A N/A N/A MISG        N/A
CROSBY         CLOUDY    19  19 100 NW13      29.97F FOG     WCI   7
TIOGA          CLOUDY    18  18 100 W6        29.94F WCI   9
WATFORD CITY   FLURRIES  23  23 100 CALM      29.94F
BISMARCK       CLOUDY    17  14  88 CALM      29.98F
GRAND FORKS    CLOUDY    19  11  70 SW3       29.99F
FARGO          CLEAR     14  11  87 S5        30.02F
BUFFALO SD       N/A     22  18  85 W3        29.86F
RAPID CITY     CLOUDY    15  10  80 W7        29.95F WCI   5
$$

REGIONAL REPORTS...WYOMING/IDAHO/WASHINGTON

CITY           SKY/WX    TMP DP  RH WIND       PRES   REMARKS
GILLETTE       CLOUDY    20  16  84 W9        29.93S WCI   9
SHERIDAN       CLOUDY    23  17  78 W8        29.97F WCI  14
BUFFALO WY     CLOUDY    17   9  70 NW3       29.92F
CODY           CLOUDY    19   5  54 NW10      29.95F WCI   7
YELLOWSTONE LA   N/A      2  -1  88 CALM      29.90F
IDAHO FALLS    CLOUDY    11   7  84 SW8       30.07S WCI  -1
SALMON         CLOUDY    23  19  86 S5        30.04F
BOISE          PTCLDY    24  15  68 SE6       30.15S WCI  17
SPOKANE        CLOUDY    18  16  92 SW3       30.13S FOG
$$

REGIONAL REPORTS...ALBERTA

CITY           SKY/WX    TMP DP  RH WIND       PRES   REMARKS
EDMONTON       MOCLDY     7   3  85 W5        29.96F
CALGARY        LGT SNOW  14  10  85 SE10      29.88F WCI   1
LETHBRIDGE     CLOUDY    19 N/A N/A NE7       29.93F HAZE    WCI  10
MEDICINE HAT   LGT SNOW  18  16  93 NE6       30.00F WCI   9
WATERTON GATE    N/A     19  10  68 SW14        N/A  WCI   6
CARDSTON         N/A     10   3  72 S3          N/A
MILK RIVER       N/A     14  12  92 W5          N/A
$$

REGIONAL REPORTS...SASKATCHEWAN

CITY           SKY/WX    TMP DP  RH WIND       PRES   REMARKS
SWIFT CURRENT  LGT SNOW  14  12  92 N8        29.95F WCI   3
REGINA         FLURRIES  14  12  92 N10G17    29.97F WCI   1
SASKATOON      MOCLDY     7   1  78 W6        30.04F WCI  -3
CYPRESS HILLS    N/A     12   9  85 N2          N/A
VAL MARIE        N/A     16  14  93 NW3         N/A
ROCKGLEN         N/A     10   9  92 W2          N/A
ASSINIBOIA       N/A     14  10  85 S2          N/A
$$



USA.gov is the U.S. government's official web portal to all federal, state and local government web resources and services.